Wind_Speed
39 39 38 39 40 40 42 43 44 46 47 48 49 49 50 50 50 51 53 54 55 57 58 60 61 62 63 64 64 64 64 63 63 63 62 63 63 63 64 65 67 68 68 68 68 68 68 68 68 69 69 70 70 71 72 73 73 74 75 76 76 77 77 78 78 79 80 79 76 74 71 70 68 67 65 66 67 66 65 64 61 58 56 56 56
40 40 40 41 42 43 44 45 46 48 48 49 50 50 51 52 53 54 55 56 58 59 60 61 62 63 64 64 64 64 64 64 63 63 62 62 63 63 65 66 67 68 68 67 67 67 68 68 69 69 70 70 71 72 73 73 74 75 76 77 78 78 78 78 77 76 76 76 74 73 72 70 68 66 63 62 62 62 61 61 59 57 54 52 53
42 42 42 44 45 46 47 48 49 50 51 51 51 52 53 54 55 56 57 58 60 61 62 62 63 64 64 64 64 64 64 63 62 61 62 62 63 64 66 67 67 67 67 66 67 67 68 69 69 69 70 71 72 72 73 74 75 76 77 78 79 79 79 78 76 74 73 73 73 72 71 70 68 65 62 61 60 58 57 57 57 55 52 50 48
43 44 44 46 47 48 50 51 51 52 53 53 54 54 55 56 57 58 59 60 61 62 62 63 63 64 64 63 63 63 62 61 60 61 62 63 64 65 66 66 66 66 66 67 67 68 68 69 69 70 70 71 72 72 73 74 75 76 78 79 79 79 79 77 75 73 71 71 72 72 70 67 65 63 60 58 57 56 54 53 52 52 51 49 46
45 45 46 47 48 50 51 52 53 54 55 55 56 56 57 58 59 60 60 61 61 62 62 63 63 62 62 62 61 61 60 59 60 61 63 64 65 66 66 66 66 66 67 67 68 68 69 69 69 70 70 71 71 72 73 74 76 77 78 79 79 79 78 77 75 74 72 71 71 70 68 65 62 61 58 54 51 51 52 52 49 47 48 49 45
46 47 47 48 49 50 52 53 54 55 56 57 57 58 59 60 60 61 61 61 61 61 61 61 61 60 60 60 59 58 58 59 61 63 64 65 65 65 65 66 66 67 67 68 68 69 69 68 69 69 70 71 71 72 74 75 76 77 78 78 79 79 78 77 75 74 74 72 70 68 66 62 59 58 56 52 47 44 46 50 49 45 45 47 44
47 48 48 49 50 51 53 54 55 56 57 58 58 59 60 60 60 60 60 60 60 59 59 58 58 58 58 57 57 57 59 61 62 64 64 64 64 65 66 66 67 67 67 67 68 68 68 68 68 69 70 70 72 73 75 76 77 77 77 78 78 78 77 76 75 74 73 71 68 66 64 61 57 56 54 50 45 41 40 44 47 45 43 44 43
49 49 50 51 52 53 55 56 57 57 57 58 59 59 59 59 59 59 59 58 57 56 56 56 55 56 56 56 57 58 60 62 63 63 64 64 65 66 66 66 66 66 66 66 66 66 67 68 68 69 70 71 73 74 75 76 76 76 77 78 78 78 76 74 73 73 72 69 66 64 62 59 57 56 54 49 46 44 42 42 44 44 44 43 40
50 51 51 52 53 54 56 57 57 57 57 58 58 58 58 58 58 57 56 55 53 53 53 53 54 55 56 57 59 60 61 62 63 63 64 65 66 65 65 65 65 65 65 65 65 66 66 67 68 69 71 72 74 75 75 75 75 76 77 78 77 76 74 73 72 71 69 66 63 61 60 58 56 55 54 50 47 45 45 45 44 43 44 44 40
50 50 50 51 51 52 53 55 55 56 56 56 56 56 56 56 56 54 53 51 50 50 51 52 54 56 58 59 60 61 62 63 63 64 65 65 65 64 64 64 64 64 64 64 64 65 66 68 69 71 72 73 75 75 76 75 76 77 77 77 75 73 71 72 71 69 66 63 59 57 56 55 54 53 52 49 46 44 43 43 44 43 41 43 42
47 48 48 49 49 50 51 52 53 54 54 54 55 54 54 54 53 51 50 49 49 50 52 53 56 58 59 61 61 62 63 64 64 64 64 64 63 62 62 62 62 62 62 63 64 65 67 69 70 72 73 74 76 76 76 76 78 79 78 77 74 71 70 70 68 65 63 60 57 54 52 52 51 51 50 48 46 44 43 42 43 42 40 40 40
44 45 46 46 47 47 48 49 50 51 51 52 52 51 50 50 50 49 48 48 49 51 53 55 57 59 61 62 62 63 63 64 64 63 62 61 61 61 61 60 60 61 61 63 64 66 68 70 71 73 74 76 76 77 77 78 80 80 79 76 73 72 71 68 65 62 59 56 54 52 50 49 49 48 48 47 46 45 44 44 44 43 41 39 38
43 44 45 45 45 46 47 48 49 49 49 49 48 48 48 49 49 48 48 49 50 52 54 56 58 60 62 62 62 62 62 63 62 61 59 59 59 58 58 58 59 60 62 63 65 67 69 70 72 73 75 76 77 77 78 80 80 79 78 76 74 73 72 68 64 60 57 54 52 51 49 47 47 48 48 47 47 46 46 46 46 45 43 39 37
42 44 45 45 46 47 48 48 48 48 48 48 48 48 48 48 48 48 49 50 52 53 55 58 59 61 62 62 61 61 61 60 59 58 57 57 57 56 57 58 59 61 62 64 66 68 69 70 72 74 75 76 77 78 79 80 79 78 77 76 75 74 71 68 64 61 57 54 52 50 49 48 47 48 48 47 47 46 45 46 46 46 45 41 37
41 43 45 45 46 46 47 47 48 48 48 47 47 47 47 47 48 49 50 51 53 54 56 58 59 60 61 61 60 59 58 57 56 55 55 55 55 56 57 59 60 62 63 65 66 68 69 71 72 74 75 76 76 78 79 79 77 77 76 76 75 73 69 66 63 60 57 54 52 50 50 49 48 47 46 46 45 45 44 44 44 44 43 41 36
41 43 44 44 44 44 44 45 45 45 46 45 46 47 47 47 48 49 50 52 54 56 57 58 59 60 60 59 58 56 55 54 54 54 54 54 55 56 58 60 61 63 64 65 67 68 70 71 73 74 75 75 76 77 77 76 75 75 75 75 75 72 68 65 62 59 57 55 53 52 52 51 49 47 46 45 44 44 44 44 44 43 42 40 37
41 42 42 42 42 42 42 41 42 45 47 47 47 47 48 48 50 51 52 54 56 56 57 57 58 58 58 57 55 54 54 53 53 54 54 54 56 58 59 61 62 64 65 66 67 68 70 71 73 73 74 74 75 75 74 73 73 74 74 74 73 70 68 66 62 59 58 56 55 54 54 53 51 48 47 45 43 42 42 42 43 42 41 39 36
41 41 40 39 39 39 39 38 40 44 47 47 47 47 48 50 52 53 54 55 56 57 56 56 56 56 56 55 54 54 53 53 54 55 55 55 57 59 61 62 64 65 65 66 68 69 70 71 72 73 73 73 73 73 72 71 72 72 73 72 70 68 67 65 62 59 57 56 56 55 55 54 51 48 46 45 44 42 41 40 40 40 39 37 34
40 39 36 34 34 36 36 36 39 43 48 50 50 50 50 52 53 54 54 56 56 56 55 54 55 55 55 55 54 54 54 54 55 56 56 57 59 61 63 64 65 65 66 67 68 69 70 71 72 72 72 71 71 70 70 70 70 70 71 70 68 66 64 61 58 55 53 53 53 53 52 52 50 47 45 44 44 43 42 41 40 39 38 36 34
40 39 37 34 35 39 40 40 43 48 52 54 54 53 52 53 54 56 56 56 55 53 53 53 54 55 55 55 55 55 55 56 57 57 57 59 61 63 64 65 66 66 67 67 68 69 69 71 71 71 70 69 69 68 68 68 68 68 68 67 65 65 63 58 55 52 50 49 49 49 49 49 48 47 45 44 44 45 44 43 41 40 39 38 35
41 41 40 38 38 41 44 44 46 50 54 56 56 56 56 57 57 57 56 54 52 52 53 54 55 55 56 56 55 56 56 57 58 58 59 61 63 64 65 66 66 67 67 67 68 68 69 70 70 69 68 67 67 66 66 67 67 67 66 65 63 63 60 56 53 51 50 49 48 48 47 48 48 48 46 45 44 45 45 44 42 39 38 37 35
42 42 42 40 40 42 44 45 47 51 56 58 58 58 58 57 56 55 52 51 51 52 54 55 55 56 56 56 56 57 58 59 59 60 61 63 64 64 65 66 67 66 66 67 67 67 68 69 69 66 65 65 65 65 66 66 66 66 65 64 63 62 59 55 52 51 50 49 48 47 47 46 47 47 46 45 45 44 43 42 40 37 35 34 32
43 42 42 41 41 41 42 43 46 51 55 58 57 56 55 54 53 52 52 53 53 54 55 55 56 56 57 57 57 58 59 60 61 61 63 64 64 65 66 67 67 66 66 66 67 67 68 68 66 63 62 62 63 64 65 65 65 64 64 63 63 62 59 55 52 50 49 49 48 48 47 46 45 45 45 45 44 43 41 40 38 35 33 32 32
43 43 43 42 41 41 40 42 45 49 54 56 56 55 54 53 52 53 55 55 55 56 57 57 57 57 58 59 59 60 61 62 63 63 64 64 64 65 66 66 66 66 65 66 66 67 68 67 64 60 59 60 62 63 64 64 63 63 62 63 63 62 59 55 52 50 49 49 49 48 47 45 44 43 43 43 43 43 42 41 40 38 34 31 31
44 44 44 44 44 43 42 43 45 49 53 56 55 54 54 54 54 56 57 57 57 58 58 58 58 59 60 61 62 62 63 64 65 65 65 65 65 65 66 66 66 65 65 66 67 67 67 65 60 57 56 58 60 61 62 62 62 61 61 62 62 62 59 54 51 50 48 48 49 48 47 46 44 43 42 42 43 44 44 44 43 42 39 35 32
46 46 46 46 46 46 46 46 48 51 54 55 55 56 57 57 58 58 59 59 59 59 59 59 59 60 61 62 63 64 64 65 66 66 66 65 65 65 65 65 65 65 65 66 67 67 66 62 58 55 55 57 59 60 61 61 61 60 60 61 61 61 58 53 51 49 48 47 48 48 47 46 45 44 43 43 43 43 43 43 43 42 41 38 34
47 47 48 48 48 48 48 49 50 52 54 56 57 58 59 59 59 59 59 59 59 60 60 60 61 62 63 64 64 65 65 66 67 68 67 66 64 64 64 64 64 65 66 67 67 66 64 59 56 54 55 56 57 59 60 60 59 59 59 60 60 60 57 53 49 48 46 46 46 47 47 47 46 45 45 44 42 42 42 42 41 40 39 38 36
48 48 49 49 49 50 50 50 52 54 55 56 58 59 60 60 60 60 59 59 60 61 62 62 62 63 64 64 65 65 66 66 68 69 67 65 64 64 64 63 64 65 66 66 66 64 61 57 55 54 54 55 56 57 59 59 58 57 58 59 60 59 58 54 50 48 47 46 47 47 47 46 47 46 45 44 42 41 41 41 40 39 38 36 35
49 49 50 50 50 50 51 51 53 54 56 58 60 61 61 61 60 60 59 59 61 62 62 62 63 63 64 64 65 66 66 67 68 69 67 66 64 64 63 63 64 65 66 65 64 61 59 56 54 52 53 54 54 55 57 59 58 57 57 58 59 59 58 55 51 49 48 47 47 46 46 45 45 45 45 45 44 42 41 39 38 38 37 36 35
50 50 51 51 51 51 52 53 54 55 58 61 62 62 62 62 61 60 60 60 62 64 64 64 64 64 64 64 65 66 66 67 68 68 67 66 65 64 63 63 64 65 65 63 61 58 57 55 53 52 54 54 53 54 56 58 58 57 58 59 59 59 59 56 52 50 48 47 46 45 44 43 43 43 44 44 44 43 41 39 38 36 35 34 34
52 52 53 53 52 52 54 55 56 57 60 64 65 65 64 64 63 62 61 61 62 65 67 68 67 67 66 65 64 65 66 67 67 67 67 67 65 64 63 63 63 63 62 60 58 56 56 55 52 52 53 54 53 53 56 57 58 57 58 59 60 60 59 56 52 49 49 48 47 45 44 42 41 40 41 41 42 42 42 41 39 37 35 33 32
55 55 55 55 55 55 56 58 58 59 61 65 68 68 67 66 65 64 63 63 64 66 68 69 69 68 67 65 64 64 64 66 67 67 66 66 65 64 63 63 62 61 60 58 56 55 55 54 52 50 51 53 54 53 55 57 57 56 57 59 60 60 60 57 53 49 48 47 46 45 44 43 41 39 38 39 40 41 41 41 39 38 36 34 32
57 58 58 58 58 57 58 59 60 61 63 66 69 70 70 68 67 66 66 66 67 68 69 69 69 68 67 64 62 63 64 65 66 66 66 66 65 64 62 61 60 59 57 56 55 54 54 53 50 48 50 53 55 54 55 56 56 55 55 57 59 59 59 58 54 49 46 46 45 44 43 43 42 40 39 38 37 38 38 39 39 38 36 35 33
60 60 61 61 61 60 60 60 62 64 65 68 71 73 71 70 70 69 69 69 68 68 67 66 66 67 66 63 62 63 64 64 65 65 65 65 64 63 61 60 59 57 56 55 55 55 54 52 48 47 49 54 56 56 55 56 56 54 53 55 57 58 58 58 55 49 46 44 44 43 43 42 41 40 39 38 37 37 36 36 37 37 36 34 32
61 62 63 64 65 64 63 63 65 66 68 71 74 74 72 70 70 69 68 67 66 65 64 64 64 65 64 63 62 63 63 63 63 65 65 65 64 62 60 58 57 56 55 55 56 55 54 50 47 47 50 54 57 57 57 56 56 54 53 54 56 58 58 58 55 51 46 44 43 42 42 42 41 40 39 37 36 36 35 35 34 34 34 33 31
64 65 66 67 68 67 65 64 65 66 67 70 73 73 71 70 69 67 65 65 65 64 64 64 66 66 65 63 62 62 61 61 62 64 66 65 63 62 59 57 56 55 54 55 56 56 52 49 48 49 51 54 57 59 58 57 56 54 52 53 56 57 57 57 55 51 47 45 43 41 41 41 41 41 39 37 36 35 34 34 33 32 32 32 30
68 69 70 70 69 67 63 61 61 63 65 67 69 70 70 70 70 69 67 66 66 64 64 64 66 68 67 64 62 61 61 62 63 65 66 65 63 61 58 56 55 54 54 54 55 53 50 49 50 52 52 54 58 59 59 58 56 54 52 53 55 56 57 56 55 51 47 45 44 42 40 40 40 40 40 38 37 35 34 34 33 32 31 31 30
71 71 71 69 66 63 60 58 59 61 63 63 64 66 68 70 70 69 67 67 65 64 64 65 66 68 67 65 63 62 63 64 65 65 65 63 60 58 57 55 55 54 54 53 53 52 51 52 54 54 54 55 58 60 60 59 57 54 52 53 55 56 57 57 55 51 46 44 43 42 41 40 39 39 39 38 37 36 34 33 32 31 31 30 29
71 69 67 64 62 60 58 56 56 58 59 59 60 63 66 69 69 68 66 65 65 65 66 67 68 69 68 66 65 65 65 65 66 66 63 60 58 57 56 55 55 55 53 52 53 54 54 55 55 56 55 56 59 60 61 59 57 53 52 53 55 56 57 57 56 51 46 42 41 41 41 40 39 38 38 38 37 37 35 33 31 30 30 29 28
66 64 62 61 60 59 57 54 54 56 57 57 58 61 65 67 67 66 65 65 65 66 67 67 68 69 68 66 65 65 66 66 65 63 60 58 56 56 55 55 55 54 53 52 54 56 56 57 57 58 58 59 60 61 61 59 56 53 52 54 55 56 57 58 57 53 47 42 39 39 39 39 40 39 38 37 37 37 36 35 33 30 29 28 27
62 61 61 59 58 57 55 54 53 54 55 55 56 58 61 63 63 63 63 64 64 65 66 67 68 68 67 66 65 65 64 63 62 60 58 56 55 56 56 56 55 54 53 53 55 57 58 59 60 61 61 61 62 62 61 59 56 53 53 54 55 56 58 58 57 55 50 43 39 38 38 38 39 39 38 37 37 37 37 36 35 32 29 27 26
61 61 60 58 57 56 55 54 53 52 52 53 54 55 57 59 60 61 62 62 63 63 63 64 65 65 65 64 63 62 61 60 59 58 57 56 56 57 56 56 54 54 53 53 55 57 59 61 63 63 63 63 62 61 60 58 56 53 54 55 56 57 58 59 58 56 51 45 40 38 37 37 37 38 37 37 37 36 37 36 35 34 32 29 26
61 61 60 58 57 56 55 54 53 52 52 52 52 53 54 55 57 58 59 60 61 61 60 61 62 62 61 60 60 59 58 58 58 58 57 56 57 57 57 56 55 54 54 54 56 58 60 62 64 64 63 62 62 61 59 58 56 55 55 56 56 57 59 60 59 56 51 46 41 39 37 36 37 37 37 37 36 36 36 36 35 33 32 30 28
61 61 61 60 58 58 56 55 54 53 53 52 52 52 52 53 53 54 56 57 58 58 58 58 59 59 59 59 58 58 57 57 57 58 57 56 57 58 58 57 56 55 55 56 57 59 60 62 63 62 62 61 61 60 59 58 57 57 57 57 57 58 60 60 59 55 51 46 42 40 38 37 37 37 37 36 36 36 35 35 34 33 31 30 28
61 61 61 60 60 59 58 57 56 55 55 54 53 52 51 51 51 51 52 52 53 53 53 54 55 56 57 57 57 56 56 56 56 56 56 56 57 58 58 57 56 56 57 58 59 60 62 62 62 61 61 61 60 60 59 58 59 59 59 58 58 59 60 60 58 54 49 44 42 40 39 38 38 37 37 37 36 35 35 34 32 31 30 29 28
62 61 60 60 59 59 60 60 59 58 57 56 54 52 51 50 49 49 49 49 49 49 49 50 52 53 55 55 55 54 54 54 54 54 55 55 56 57 57 57 57 58 59 60 61 62 62 61 61 61 61 61 60 60 59 59 60 61 60 60 59 60 60 59 56 51 46 42 41 41 39 39 38 38 38 37 36 35 33 32 30 29 28 28 27
62 61 60 59 58 58 59 59 60 60 59 57 54 51 49 48 48 47 47 47 47 48 48 49 50 52 52 53 54 53 53 53 53 53 54 54 55 55 56 57 59 60 61 62 62 61 61 60 61 61 62 62 61 60 60 60 61 62 61 61 61 60 60 58 53 46 42 40 40 40 40 40 40 39 38 38 37 35 32 30 28 27 26 26 26
60 59 58 57 57 58 58 58 58 59 58 56 53 49 48 47 47 47 47 47 47 47 48 49 50 51 52 52 52 52 52 51 50 50 51 53 54 55 56 57 59 60 61 61 61 60 60 61 62 62 62 62 62 61 61 62 63 63 63 63 62 61 58 53 47 41 39 39 39 40 41 41 41 40 39 38 37 35 32 29 28 26 25 25 26
59 58 57 57 57 57 55 53 52 53 53 51 50 48 48 48 48 48 48 48 48 48 48 49 50 50 51 51 50 50 49 48 48 48 49 51 53 54 55 57 58 59 60 60 61 61 62 62 63 63 63 63 63 63 63 63 63 64 64 64 63 58 52 45 41 38 38 38 39 40 41 42 42 41 39 38 37 36 33 30 28 27 26 26 26
58 58 57 56 54 52 49 46 45 45 46 46 47 48 49 49 49 49 49 50 49 49 49 50 50 50 50 50 49 49 48 48 48 49 50 51 53 54 55 56 58 58 59 60 62 62 63 64 64 64 64 63 64 64 64 63 64 65 66 64 59 52 44 40 38 38 38 38 39 41 42 43 43 41 40 38 37 36 35 32 30 28 27 27 27
56 55 54 51 48 46 45 44 43 42 42 43 45 46 48 49 49 50 50 51 51 51 51 51 52 51 51 50 50 50 50 50 51 52 53 54 55 55 56 57 59 60 61 62 63 63 64 65 65 65 64 65 65 65 64 64 65 65 63 58 52 45 41 39 39 39 39 39 40 41 43 44 44 43 41 39 38 37 36 34 32 31 29 28 28
Wind_Direction
262 262 263 263 265 266 268 270 271 272 273 275 276 278 281 283 285 287 288 289 291 293 294 295 296 297 297 298 299 300 301 303 303 304 304 304 304 304 305 306 307 308 309 309 308 308 307 307 307 307 307 307 308 308 309 310 310 310 310 310 310 309 309 308 309 309 310 310 309 308 306 305 304 302 300 298 296 294 292 290 287 283 279 276 273
260 261 262 263 264 266 268 269 271 273 275 276 278 280 282 284 286 288 290 291 293 294 295 296 297 298 298 299 300 301 302 303 304 304 303 303 304 305 306 307 308 309 309 308 308 307 307 307 307 307 308 308 309 310 310 311 311 311 311 311 310 310 310 310 311 312 312 311 311 310 309 308 306 305 303 300 297 295 293 291 289 285 281 277 273
259 260 261 263 265 266 268 270 272 274 276 278 280 282 284 285 287 289 291 293 295 296 296 297 298 298 299 300 301 302 302 303 303 303 303 304 305 307 308 308 308 308 308 308 308 308 308 308 308 308 309 309 310 311 311 312 312 312 312 311 311 311 311 312 313 314 314 313 312 312 311 310 308 307 305 302 299 297 294 292 290 287 284 279 274
259 260 261 263 265 267 270 272 274 276 277 279 281 283 285 287 289 290 292 294 295 297 297 298 298 299 300 300 300 301 302 303 303 303 304 305 307 308 308 308 308 308 308 308 308 308 308 308 309 309 310 311 311 312 312 313 313 313 313 313 313 313 313 315 316 316 316 315 315 313 312 311 309 307 305 303 301 299 296 293 291 290 287 282 276
260 261 262 264 266 268 270 273 275 276 278 280 282 284 286 288 289 291 292 294 295 296 297 297 298 299 299 299 300 302 303 303 303 304 306 307 308 309 309 308 308 308 308 308 308 308 309 309 310 310 311 312 312 313 313 314 314 314 314 314 314 315 316 318 319 319 318 318 316 314 313 312 310 307 305 303 302 301 299 296 293 291 288 284 279
262 263 264 265 267 269 270 272 274 276 278 280 282 284 286 288 289 291 292 294 295 296 297 298 298 298 298 299 301 302 303 303 304 306 307 308 309 309 309 308 309 309 309 309 309 309 309 310 311 311 312 313 314 314 315 315 315 316 316 316 316 317 320 321 321 320 320 319 318 316 314 313 311 308 306 305 304 302 301 299 296 292 288 285 283
264 265 266 267 268 270 271 272 274 276 278 280 282 284 286 288 289 291 293 294 295 296 297 297 297 298 298 300 301 302 303 304 305 307 308 308 309 309 309 309 309 309 309 309 309 310 310 311 312 313 313 314 315 316 316 316 317 317 317 317 318 320 322 323 322 321 321 320 319 317 315 314 313 311 309 308 308 306 302 300 298 295 290 287 286
266 267 268 269 270 272 273 274 275 277 279 281 283 285 286 288 290 291 293 295 296 296 296 296 296 297 298 300 301 302 303 305 306 307 308 309 309 309 309 310 309 309 309 310 310 311 311 312 313 314 315 316 316 317 317 318 318 318 318 319 321 322 323 323 323 322 321 321 320 319 317 316 316 314 313 313 314 312 308 303 300 298 294 290 287
267 269 270 271 273 274 275 276 277 279 281 282 284 285 287 288 290 292 293 294 295 294 294 295 296 297 298 300 301 303 304 305 306 307 308 309 310 310 310 310 310 310 310 311 311 312 313 313 315 316 316 317 317 318 319 319 319 319 320 321 322 323 324 324 324 323 322 322 322 320 319 318 317 316 315 315 316 314 310 306 303 300 298 295 292
270 271 272 273 274 276 276 278 280 281 282 283 284 286 287 288 290 291 292 293 292 292 293 294 295 296 298 300 302 303 304 305 306 307 308 309 310 310 310 310 310 311 311 312 313 313 314 315 316 317 317 318 318 319 320 320 320 320 321 322 323 324 325 326 325 324 323 322 322 321 319 318 317 316 315 316 316 313 310 306 304 301 299 297 295
273 273 274 274 275 276 277 279 281 282 282 283 285 286 287 288 289 290 291 291 291 291 293 294 295 296 298 300 302 303 304 305 306 307 309 309 310 310 310 311 311 312 312 313 314 315 316 316 317 318 318 319 320 320 321 321 321 321 322 323 324 326 327 326 325 324 324 323 322 321 320 319 318 317 317 317 317 315 312 309 307 304 302 300 297
273 273 273 274 276 277 278 279 280 281 282 284 285 286 287 287 288 289 290 290 290 291 293 294 295 297 298 300 302 303 304 305 307 308 309 309 310 310 311 312 312 313 314 314 315 316 317 317 318 319 319 320 321 321 322 322 322 322 323 324 326 327 328 327 326 325 324 323 323 323 322 321 321 320 320 321 320 319 316 313 311 308 306 303 300
271 272 273 275 277 278 279 279 280 282 283 284 285 286 286 286 288 288 289 289 290 291 293 294 296 297 299 300 302 303 305 306 307 308 309 310 310 311 312 312 313 314 314 315 316 317 318 318 319 320 321 321 322 322 322 322 322 323 324 325 328 329 329 328 327 326 326 326 325 324 324 325 325 324 324 324 322 320 318 315 313 310 308 307 305
270 271 272 274 275 276 278 279 280 281 282 283 284 284 285 286 287 287 287 289 290 292 294 295 296 297 299 300 302 304 305 306 307 308 309 310 311 312 312 313 313 314 315 316 317 318 319 320 320 321 322 322 322 322 323 323 323 324 325 327 329 329 329 329 329 329 328 328 328 327 327 329 329 327 325 324 322 320 317 315 313 312 311 310 309
269 270 271 272 274 276 278 279 281 282 282 283 283 283 283 285 285 286 287 289 291 293 295 296 296 297 299 301 303 305 306 307 308 308 309 311 312 312 313 313 314 315 316 317 318 319 320 321 321 322 322 322 322 322 322 323 324 326 326 328 329 329 329 330 331 330 329 330 330 331 330 331 330 328 325 324 322 319 317 315 313 312 311 310 310
269 270 272 274 276 278 280 281 283 284 283 283 283 283 284 284 283 285 287 289 291 294 295 296 296 298 300 302 304 306 306 307 308 309 310 311 312 313 313 314 314 315 316 317 318 320 320 321 322 322 322 322 322 322 323 324 326 326 327 328 329 329 330 331 332 332 331 332 333 333 332 331 331 329 326 325 323 321 320 318 317 316 314 314 313
270 272 274 277 279 280 282 284 286 286 284 283 283 283 284 283 283 285 288 290 292 294 295 296 297 299 301 303 305 306 307 307 308 309 310 311 312 313 313 314 315 316 317 317 319 320 321 322 322 322 322 322 321 322 324 326 327 327 327 328 329 331 332 333 333 334 335 335 335 335 333 332 331 330 328 327 326 324 323 322 321 320 319 318 317
270 273 277 280 281 282 284 287 287 285 283 282 282 282 282 283 283 285 288 291 293 295 295 297 299 300 302 303 305 306 306 306 308 309 309 310 311 313 314 315 316 316 317 317 319 320 321 322 322 322 321 321 322 323 325 327 327 326 327 328 330 332 334 334 334 336 337 337 336 336 334 332 331 331 330 328 327 326 326 325 324 323 322 323 323
271 273 276 276 273 272 276 280 281 279 279 280 280 280 282 284 284 286 289 292 294 295 296 298 300 301 302 303 304 305 305 305 307 308 309 309 311 312 314 315 316 316 316 317 318 319 321 322 322 321 321 321 322 324 326 326 326 326 327 328 331 334 335 335 335 336 337 337 336 335 333 331 330 331 331 331 330 330 330 329 329 328 327 326 326
272 273 272 269 264 264 265 267 270 273 276 277 278 279 282 284 285 287 290 293 294 295 296 299 300 301 302 302 303 303 304 304 305 307 308 309 310 312 313 315 315 315 316 317 317 319 321 321 321 320 320 321 323 325 326 325 325 325 327 329 332 334 335 334 334 335 336 337 336 334 333 332 332 332 334 335 335 333 332 332 333 333 331 329 326
274 273 272 270 267 267 267 267 267 270 272 274 276 277 279 282 285 288 291 293 294 295 297 299 300 300 301 301 301 302 302 303 304 306 306 308 310 311 313 314 315 315 315 316 317 319 320 320 320 320 320 322 323 325 325 325 325 326 328 330 333 335 335 334 334 335 336 337 337 336 336 336 336 336 337 338 338 336 334 333 334 334 331 328 326
275 274 274 273 271 270 271 271 270 269 270 271 273 276 279 283 286 288 291 293 293 294 296 298 299 299 299 299 299 300 301 302 304 305 305 307 309 311 312 313 314 314 315 315 317 318 319 319 319 320 320 322 323 324 324 325 325 327 329 331 334 336 335 334 335 336 337 338 338 338 339 339 339 338 339 339 339 337 334 332 332 333 331 329 327
275 275 276 276 275 274 273 272 271 271 272 274 277 280 283 285 287 288 291 292 292 294 295 296 297 298 298 298 298 300 301 302 303 304 305 307 308 310 312 313 313 314 314 315 316 317 318 318 319 320 321 322 322 323 324 325 326 328 330 332 334 336 336 335 335 337 338 339 339 340 341 341 340 340 340 340 339 336 334 333 332 333 335 335 332
275 276 276 276 275 274 272 271 272 273 275 278 282 284 285 286 287 288 289 290 291 292 293 294 295 296 296 297 297 299 300 301 302 303 304 306 308 310 312 312 313 313 314 314 315 316 317 317 318 319 320 321 322 323 325 326 327 329 330 333 335 337 336 335 336 337 339 340 340 341 340 340 341 341 341 341 340 338 337 337 336 336 338 340 339
274 275 275 275 275 274 273 272 273 274 276 279 283 284 285 286 287 287 288 289 289 290 291 292 293 294 295 296 297 298 299 300 301 302 303 305 308 310 311 311 312 312 313 313 314 315 316 317 318 319 320 320 321 323 325 327 328 329 331 333 336 337 336 335 336 337 339 341 341 340 340 340 341 341 342 342 344 344 342 341 341 340 339 342 344
274 274 275 275 275 275 275 274 274 275 278 280 282 284 284 285 286 286 287 288 289 290 291 291 292 294 295 296 297 298 299 299 300 301 302 305 307 309 310 310 311 311 311 312 313 314 315 316 318 319 320 320 322 323 325 327 329 330 332 334 335 337 336 335 336 337 340 341 341 340 340 341 341 342 344 345 346 347 345 343 343 342 340 341 343
275 275 276 276 277 277 277 277 277 277 278 280 281 282 283 284 285 285 286 288 289 290 290 291 292 293 294 295 296 297 298 298 299 300 302 304 307 308 308 309 309 310 310 312 313 314 315 316 318 319 319 321 323 325 326 329 330 330 332 333 335 336 336 335 335 337 339 341 342 341 341 342 342 344 345 345 346 347 347 345 343 343 342 341 342
276 277 277 278 278 278 278 278 279 279 280 280 280 281 281 282 283 285 286 288 289 289 290 291 292 293 294 295 295 296 297 297 298 299 301 304 305 306 307 308 308 309 310 311 312 313 314 316 317 319 319 321 324 326 328 329 330 330 331 333 334 336 337 335 335 337 339 341 343 343 343 343 344 344 344 344 345 347 348 347 345 344 343 342 345
278 279 279 279 279 280 280 279 280 280 280 279 279 280 280 282 283 285 286 288 289 290 291 292 292 293 294 294 294 295 296 296 297 298 301 302 303 305 306 307 307 308 310 311 312 312 313 315 316 317 318 321 325 327 328 329 330 330 331 332 335 337 338 336 336 337 339 341 342 343 343 344 344 343 343 343 344 346 347 348 347 346 345 344 346
279 279 279 280 280 281 281 281 281 281 280 279 279 280 281 282 283 284 286 288 290 291 291 292 292 292 292 293 293 294 295 295 296 298 300 301 302 304 306 306 307 308 310 311 311 311 312 314 315 315 317 320 325 328 329 329 330 330 331 333 335 337 338 337 336 336 338 339 340 342 343 343 344 343 343 343 344 344 345 347 348 348 348 347 347
278 279 280 281 282 282 282 282 282 282 281 281 281 281 281 282 283 285 287 288 290 290 291 291 292 291 291 291 292 293 294 295 296 297 298 300 302 304 305 306 307 308 309 310 309 309 310 313 314 314 316 320 324 328 329 330 330 331 332 333 334 337 338 337 336 336 337 338 339 340 341 342 343 343 343 343 343 343 344 346 347 349 350 350 349
279 280 281 282 283 283 283 283 283 282 281 281 281 282 283 284 285 286 287 287 288 288 288 288 288 288 289 290 291 292 293 293 295 296 297 299 301 303 304 305 307 308 308 307 307 307 309 311 312 313 316 320 324 327 329 329 330 331 332 333 334 336 337 337 335 335 336 337 337 338 340 341 342 342 342 343 343 344 344 344 346 348 349 350 351
280 282 283 283 284 284 283 283 283 282 281 280 280 281 283 284 285 286 287 286 286 286 285 286 286 287 288 289 290 291 291 292 293 294 296 298 300 302 304 306 306 307 306 305 305 307 308 309 310 312 317 321 323 326 328 328 329 330 332 332 333 334 335 336 334 333 334 334 335 336 337 339 340 341 341 342 343 344 344 343 344 347 349 351 351
281 282 283 284 284 284 284 283 281 281 280 280 280 281 282 283 284 284 284 284 284 283 284 285 285 286 288 289 289 289 289 291 293 294 295 297 299 302 304 305 305 305 304 303 304 306 307 307 309 313 318 321 322 324 326 327 327 329 331 332 332 332 334 334 333 331 331 332 333 334 336 337 338 339 340 341 342 343 343 343 343 345 347 349 350
281 282 283 284 285 285 284 283 282 281 280 280 280 280 281 282 281 281 282 282 282 282 283 283 282 282 284 285 286 287 289 291 292 293 295 297 299 301 303 303 303 302 302 302 304 306 306 307 311 315 318 320 320 322 324 325 325 327 330 331 331 331 332 333 332 330 329 330 331 333 335 336 336 337 338 339 340 341 342 342 342 343 344 346 349
281 282 284 284 284 284 283 283 282 280 279 279 280 281 282 283 282 282 282 282 282 283 283 283 282 282 282 283 285 287 289 290 291 292 294 296 298 300 301 300 300 300 301 303 305 306 308 310 313 315 317 318 319 320 322 323 323 326 329 330 330 330 330 332 331 329 327 328 329 331 333 335 335 335 336 337 338 339 340 340 341 341 342 343 346
283 284 284 284 284 283 283 282 280 279 278 278 279 280 281 281 281 281 281 281 281 281 282 281 282 282 283 285 286 287 288 288 289 291 292 295 297 298 298 298 298 300 302 303 304 306 310 313 314 314 316 317 317 318 320 320 321 324 328 329 329 328 328 330 330 328 325 326 327 329 332 333 334 334 334 335 336 337 338 339 339 340 340 341 343
284 284 284 284 283 283 282 281 279 277 277 277 278 278 277 277 278 278 278 278 278 278 278 278 279 280 282 284 285 286 286 287 288 289 291 293 295 296 295 296 298 300 301 302 304 307 311 313 313 313 315 315 316 316 317 318 320 323 326 327 327 327 326 327 328 326 324 323 325 327 329 331 332 332 332 332 333 334 336 337 337 337 338 339 341
283 283 283 283 283 282 282 280 278 277 277 277 276 276 275 275 277 278 278 278 277 276 275 275 276 278 280 282 283 284 285 286 286 288 290 292 292 292 293 295 297 299 300 302 305 308 310 311 312 313 314 314 314 315 315 316 318 322 325 325 325 325 325 325 325 325 322 321 322 324 326 328 329 330 330 331 331 332 332 333 334 335 336 336 337
282 281 281 281 281 281 280 279 277 276 277 277 276 275 274 275 276 277 278 277 276 275 275 275 276 278 279 281 282 283 284 285 286 287 290 291 291 291 293 295 297 299 301 303 304 306 308 309 310 311 312 313 313 312 313 314 316 320 323 324 323 323 323 323 323 323 321 319 320 322 323 325 326 328 329 329 329 329 329 329 330 332 333 333 333
281 280 280 281 280 279 278 277 277 277 277 277 277 276 275 275 275 275 275 274 274 275 275 275 275 277 278 280 281 282 283 284 286 288 290 291 290 290 292 294 296 297 299 301 302 304 305 306 307 309 309 310 310 310 310 312 315 319 322 322 321 322 322 321 321 321 319 317 317 319 321 322 323 325 326 327 326 326 326 326 326 327 329 330 330
281 281 281 281 280 278 277 277 277 277 278 278 277 276 275 274 273 272 272 271 272 272 273 274 275 276 277 279 280 281 282 284 286 288 289 289 288 288 290 293 294 295 297 300 301 302 302 303 304 304 305 306 306 307 308 311 314 318 320 320 320 320 320 319 319 318 316 314 315 317 318 320 321 322 323 324 324 323 323 323 323 324 325 326 327
281 281 281 281 280 279 278 278 278 279 279 278 277 277 276 275 274 273 272 271 271 271 273 274 276 277 278 279 280 281 283 284 286 287 288 287 286 288 290 291 292 294 297 299 300 300 301 300 300 301 301 303 304 305 307 310 314 317 318 318 318 319 318 317 316 316 314 312 312 314 316 317 319 319 320 321 321 320 320 319 319 320 321 321 322
281 281 282 282 281 280 279 278 279 279 279 279 278 278 277 277 276 275 273 273 272 273 273 274 274 275 276 278 279 281 282 283 284 285 285 284 284 286 288 290 292 294 295 297 298 299 298 298 298 298 300 301 302 304 307 310 313 315 315 315 316 317 316 314 314 314 311 309 309 312 314 315 316 317 317 318 318 317 316 316 316 316 317 317 318
280 280 281 281 281 281 280 279 279 280 280 280 280 279 278 277 277 277 276 275 275 274 274 273 273 274 275 277 279 281 281 282 282 282 282 282 282 283 285 288 291 292 294 295 296 296 296 296 297 298 299 300 302 304 307 310 312 313 313 313 315 315 313 312 312 311 308 306 307 309 311 313 313 314 315 315 315 314 313 312 312 313 313 314 314
279 280 280 279 280 280 281 281 281 281 281 281 281 280 279 278 278 278 278 277 276 276 275 274 273 274 275 277 279 280 281 281 282 281 280 280 280 282 284 287 290 291 292 293 293 294 295 296 297 298 299 300 302 305 308 310 310 310 310 312 313 312 310 310 310 308 305 303 304 307 308 310 311 311 312 312 312 311 310 309 309 309 310 310 310
279 279 279 278 278 278 279 280 281 282 281 281 280 278 277 277 277 277 277 276 275 275 274 273 273 274 275 276 278 279 280 281 280 279 278 279 280 282 285 287 288 289 290 290 292 293 295 296 296 297 299 301 303 306 307 308 307 307 309 310 310 310 309 308 307 305 301 301 302 304 306 307 308 308 309 310 310 309 308 306 305 306 306 307 307
278 277 277 277 277 277 278 279 280 280 280 280 279 277 275 275 274 274 274 274 274 274 274 273 274 274 275 275 277 278 280 280 280 279 278 279 280 282 283 284 285 287 288 290 292 293 294 295 296 297 299 301 303 305 305 305 306 307 309 309 309 308 308 307 304 301 299 299 301 302 303 304 305 306 307 308 308 307 306 304 303 303 304 305 306
277 277 277 277 277 277 278 278 278 278 278 279 278 277 275 273 273 273 273 274 274 275 275 275 275 276 277 277 278 278 278 279 279 280 279 279 280 281 282 283 285 287 288 290 292 293 294 295 296 297 299 301 302 303 303 304 306 307 308 308 307 307 306 304 302 299 298 299 300 301 301 302 303 304 306 307 307 306 304 303 302 302 303 303 304
277 277 277 277 277 276 276 275 275 276 277 278 277 275 274 273 273 273 273 274 274 275 276 276 277 277 278 279 279 279 279 279 280 281 281 281 281 282 283 285 286 288 289 290 291 292 293 294 295 297 299 300 301 302 303 305 306 306 306 305 305 304 304 302 300 298 298 298 299 300 300 301 302 303 304 305 305 304 303 302 301 301 302 302 303
277 277 277 277 276 275 274 273 273 274 276 277 276 275 274 274 273 273 273 274 274 275 276 277 278 279 279 280 280 280 281 281 281 282 282 282 283 284 285 287 288 288 289 290 291 292 293 293 295 296 298 299 300 302 303 304 304 304 303 303 302 303 302 301 298 297 298 298 299 299 300 301 302 303 303 304 303 303 302 301 301 301 301 301 301
Height
10669 10669 10668 10668 10668 10668 10668 10667 10667 10666 10665 10665 10665 10665 10664 10663 10662 10661 10659 10658 10657 10656 10654 10652 10651 10649 10647 10645 10642 10640 10638 10635 10632 10629 10626 10623 10621 10618 10614 10610 10605 10601 10597 10593 10588 10584 10580 10576 10571 10567 10563 10558 10554 10549 10543 10538 10533 10527 10522 10516 10511 10507 10501 10493 10487 10479 10467 10460 10456 10450 10445 10441 10435 10430 10425 10416 10408 10404 10400 10398 10399 10401 10403 10403 10404
10663 10664 10664 10664 10664 10663 10663 10663 10662 10661 10661 10660 10660 10659 10659 10658 10657 10655 10654 10653 10651 10650 10648 10646 10644 10642 10640 10638 10635 10633 10630 10628 10625 10622 10619 10616 10614 10611 10607 10603 10598 10594 10590 10586 10581 10577 10573 10569 10564 10560 10556 10551 10546 10541 10535 10529 10524 10518 10512 10507 10500 10495 10490 10485 10479 10473 10463 10452 10444 10438 10432 10427 10423 10418 10414 10408 10401 10395 10391 10387 10386 10388 10391 10393 10393
10658 10659 10659 10659 10659 10658 10658 10657 10656 10656 10655 10655 10654 10654 10653 10653 10651 10650 10649 10647 10646 10644 10642 10640 10638 10636 10633 10631 10628 10626 10623 10621 10619 10616 10613 10610 10607 10604 10600 10595 10591 10587 10583 10579 10575 10570 10566 10562 10557 10553 10548 10543 10538 10533 10528 10521 10515 10510 10503 10497 10491 10484 10478 10474 10469 10463 10455 10445 10436 10429 10423 10417 10412 10407 10403 10398 10392 10387 10383 10379 10376 10376 10378 10381 10383
10653 10653 10653 10653 10653 10653 10652 10652 10651 10650 10649 10649 10649 10648 10648 10647 10645 10644 10643 10642 10639 10637 10635 10633 10631 10629 10626 10624 10621 10619 10617 10615 10612 10609 10606 10603 10601 10597 10592 10588 10584 10580 10576 10572 10568 10563 10559 10555 10550 10545 10540 10536 10531 10525 10520 10514 10507 10501 10495 10488 10481 10475 10468 10463 10457 10451 10445 10437 10427 10419 10414 10409 10403 10397 10393 10389 10383 10378 10375 10372 10370 10368 10367 10368 10372
10648 10648 10648 10648 10648 10647 10647 10646 10645 10644 10644 10644 10643 10642 10642 10640 10639 10638 10637 10636 10634 10631 10629 10627 10625 10622 10620 10617 10615 10613 10611 10608 10605 10603 10600 10597 10594 10590 10586 10581 10578 10574 10569 10565 10561 10557 10552 10548 10543 10538 10533 10528 10523 10518 10512 10507 10500 10493 10486 10479 10472 10466 10459 10452 10445 10438 10433 10427 10419 10410 10404 10400 10394 10387 10383 10382 10378 10372 10366 10362 10363 10363 10358 10356 10361
10642 10642 10643 10643 10642 10642 10641 10640 10639 10639 10638 10638 10637 10637 10636 10634 10633 10632 10631 10630 10628 10625 10622 10620 10618 10615 10613 10611 10609 10607 10605 10602 10599 10596 10593 10590 10587 10583 10579 10575 10571 10567 10563 10558 10554 10550 10545 10541 10536 10531 10526 10521 10516 10510 10504 10499 10493 10485 10478 10471 10464 10457 10450 10443 10436 10428 10422 10416 10410 10403 10395 10391 10386 10379 10373 10372 10371 10369 10362 10353 10351 10354 10352 10347 10351
10636 10637 10637 10637 10637 10636 10635 10634 10634 10634 10633 10632 10632 10631 10630 10628 10627 10626 10625 10624 10621 10618 10616 10613 10611 10609 10607 10605 10603 10601 10599 10596 10593 10590 10587 10584 10581 10577 10573 10569 10565 10561 10556 10552 10547 10543 10538 10533 10529 10524 10520 10514 10508 10503 10497 10490 10484 10478 10470 10463 10456 10449 10443 10436 10428 10420 10414 10407 10401 10394 10387 10382 10377 10371 10366 10363 10362 10361 10358 10350 10343 10343 10343 10342 10344
10631 10631 10632 10632 10631 10630 10629 10628 10628 10628 10627 10626 10626 10625 10624 10622 10621 10620 10619 10617 10615 10612 10610 10607 10605 10603 10601 10600 10598 10596 10593 10590 10587 10584 10580 10577 10574 10570 10566 10562 10558 10554 10550 10545 10540 10536 10531 10526 10522 10518 10512 10507 10502 10496 10490 10483 10476 10470 10463 10456 10450 10443 10437 10430 10422 10414 10406 10401 10394 10386 10379 10373 10369 10362 10357 10356 10354 10351 10348 10344 10339 10336 10334 10334 10338
10625 10626 10626 10626 10626 10624 10623 10622 10622 10621 10621 10620 10619 10619 10617 10616 10615 10614 10613 10611 10609 10607 10604 10602 10600 10597 10596 10594 10592 10590 10587 10584 10581 10578 10575 10571 10568 10564 10560 10556 10552 10547 10543 10539 10534 10529 10525 10520 10515 10511 10506 10500 10495 10489 10483 10477 10471 10464 10457 10451 10444 10438 10431 10424 10416 10408 10400 10394 10388 10381 10372 10366 10362 10357 10351 10349 10348 10344 10340 10336 10332 10331 10329 10327 10330
10620 10620 10620 10620 10619 10618 10617 10616 10616 10615 10614 10614 10613 10612 10611 10610 10609 10609 10608 10606 10604 10602 10599 10597 10595 10592 10590 10589 10587 10584 10581 10578 10575 10572 10569 10565 10561 10558 10554 10550 10545 10541 10536 10532 10528 10523 10518 10513 10508 10503 10498 10493 10487 10481 10475 10469 10463 10457 10451 10446 10440 10434 10426 10418 10410 10403 10395 10388 10383 10377 10369 10362 10357 10352 10347 10343 10341 10339 10335 10330 10326 10325 10325 10322 10321
10614 10614 10614 10614 10613 10613 10612 10611 10610 10609 10608 10607 10607 10606 10605 10604 10603 10604 10603 10601 10599 10597 10595 10592 10590 10587 10585 10583 10581 10579 10576 10573 10570 10566 10563 10559 10556 10552 10548 10544 10539 10535 10531 10526 10521 10516 10511 10506 10501 10496 10491 10485 10479 10473 10467 10461 10454 10448 10442 10437 10432 10427 10421 10414 10406 10398 10390 10383 10378 10372 10365 10359 10353 10347 10342 10338 10335 10331 10328 10324 10321 10318 10319 10318 10315
10609 10609 10609 10609 10608 10608 10607 10605 10604 10604 10603 10602 10601 10601 10600 10598 10598 10598 10597 10595 10594 10592 10590 10587 10584 10582 10579 10578 10576 10573 10570 10567 10564 10561 10557 10554 10550 10546 10542 10538 10534 10530 10525 10521 10516 10511 10506 10500 10495 10489 10483 10477 10471 10465 10459 10453 10447 10440 10434 10428 10423 10418 10413 10408 10401 10394 10387 10379 10372 10367 10361 10355 10349 10343 10338 10333 10329 10325 10321 10317 10314 10312 10312 10312 10310
10604 10603 10604 10604 10603 10603 10601 10600 10599 10599 10598 10597 10597 10596 10595 10593 10593 10593 10592 10590 10589 10587 10585 10582 10579 10576 10574 10572 10570 10568 10565 10561 10558 10555 10552 10548 10545 10541 10537 10533 10529 10524 10520 10515 10510 10505 10500 10495 10489 10483 10477 10471 10464 10458 10452 10445 10439 10432 10426 10420 10415 10409 10403 10397 10392 10386 10380 10374 10367 10361 10356 10351 10345 10338 10333 10329 10324 10320 10315 10311 10307 10304 10304 10305 10305
10599 10599 10599 10599 10598 10598 10597 10596 10595 10594 10594 10593 10592 10591 10590 10589 10588 10587 10586 10585 10583 10581 10579 10576 10573 10571 10568 10566 10565 10562 10559 10555 10552 10549 10546 10543 10539 10536 10532 10528 10524 10519 10515 10510 10505 10500 10495 10489 10483 10477 10471 10464 10458 10451 10445 10438 10432 10425 10418 10412 10407 10402 10396 10390 10383 10377 10371 10366 10361 10354 10349 10345 10340 10334 10329 10324 10320 10316 10312 10307 10302 10298 10296 10297 10298
10595 10594 10594 10594 10594 10593 10592 10591 10590 10590 10589 10589 10587 10586 10585 10584 10583 10582 10581 10579 10578 10576 10573 10571 10568 10565 10563 10561 10559 10556 10553 10549 10546 10543 10540 10537 10534 10530 10527 10523 10518 10514 10510 10505 10500 10495 10489 10484 10478 10472 10466 10459 10452 10446 10439 10433 10426 10419 10412 10406 10401 10396 10391 10385 10378 10372 10365 10359 10354 10348 10343 10339 10335 10331 10326 10321 10316 10311 10307 10303 10299 10295 10291 10290 10292
10590 10590 10590 10590 10590 10590 10588 10587 10586 10585 10584 10583 10582 10581 10581 10580 10578 10577 10576 10574 10572 10570 10568 10565 10562 10559 10557 10555 10553 10550 10547 10544 10541 10538 10535 10532 10529 10525 10521 10517 10513 10509 10504 10500 10495 10490 10484 10479 10473 10467 10461 10454 10448 10442 10435 10428 10421 10415 10408 10402 10396 10390 10384 10378 10373 10366 10359 10352 10346 10341 10336 10332 10329 10325 10320 10317 10312 10307 10301 10296 10292 10289 10286 10283 10284
10586 10586 10586 10587 10587 10586 10584 10583 10581 10579 10577 10577 10577 10576 10575 10573 10572 10571 10570 10568 10566 10565 10562 10559 10556 10554 10551 10549 10547 10544 10541 10538 10535 10532 10530 10526 10523 10520 10516 10512 10508 10504 10499 10495 10490 10485 10479 10474 10468 10462 10456 10450 10444 10437 10431 10424 10417 10411 10404 10398 10392 10385 10377 10371 10365 10359 10352 10345 10340 10335 10330 10325 10322 10319 10314 10310 10307 10303 10298 10293 10288 10284 10281 10279 10278
10582 10582 10584 10585 10584 10581 10580 10579 10577 10574 10571 10570 10571 10571 10569 10567 10566 10565 10564 10563 10561 10559 10557 10554 10550 10548 10545 10543 10541 10538 10535 10533 10530 10527 10524 10521 10518 10514 10510 10507 10503 10499 10494 10489 10485 10480 10475 10469 10464 10458 10452 10446 10440 10433 10427 10421 10414 10408 10401 10395 10389 10383 10375 10367 10360 10354 10348 10341 10335 10329 10324 10320 10317 10314 10310 10305 10302 10298 10295 10290 10286 10281 10277 10275 10273
10578 10579 10581 10584 10582 10578 10576 10576 10573 10569 10566 10565 10565 10565 10564 10562 10560 10559 10558 10557 10555 10553 10551 10548 10545 10542 10540 10537 10535 10532 10530 10527 10525 10522 10519 10516 10512 10509 10505 10502 10498 10493 10489 10485 10480 10475 10470 10465 10459 10453 10448 10442 10436 10430 10424 10418 10412 10406 10400 10393 10387 10380 10374 10367 10360 10354 10348 10342 10336 10330 10324 10318 10314 10310 10306 10302 10297 10293 10290 10287 10282 10278 10274 10272 10270
10573 10574 10576 10579 10578 10574 10573 10573 10570 10564 10560 10559 10559 10558 10558 10557 10555 10554 10552 10551 10549 10547 10545 10542 10539 10537 10534 10532 10529 10527 10524 10522 10519 10517 10514 10511 10507 10504 10500 10496 10493 10488 10484 10480 10475 10471 10466 10460 10455 10449 10444 10438 10433 10427 10421 10416 10410 10404 10398 10392 10385 10378 10371 10366 10360 10354 10349 10343 10337 10331 10324 10318 10312 10307 10303 10299 10294 10289 10285 10282 10279 10275 10271 10267 10265
10567 10568 10569 10572 10571 10568 10566 10567 10566 10561 10556 10553 10552 10552 10552 10551 10550 10548 10546 10545 10543 10541 10539 10536 10534 10531 10529 10526 10524 10521 10519 10516 10514 10512 10509 10505 10502 10499 10495 10491 10487 10484 10480 10475 10471 10466 10461 10456 10451 10445 10439 10434 10429 10424 10418 10413 10407 10401 10395 10389 10383 10376 10370 10364 10358 10352 10346 10341 10335 10329 10323 10316 10309 10304 10299 10296 10292 10287 10282 10279 10276 10273 10269 10265 10262
10560 10561 10562 10564 10564 10562 10560 10560 10559 10555 10550 10548 10547 10547 10547 10546 10544 10541 10540 10539 10537 10535 10533 10531 10528 10526 10523 10521 10518 10516 10513 10511 10509 10506 10503 10500 10497 10494 10490 10486 10482 10479 10475 10470 10466 10462 10457 10452 10447 10441 10436 10430 10425 10420 10415 10409 10403 10397 10391 10385 10379 10373 10367 10361 10355 10349 10343 10338 10332 10327 10321 10315 10309 10303 10297 10293 10289 10286 10281 10277 10274 10271 10267 10263 10260
10554 10555 10555 10556 10557 10556 10555 10555 10552 10547 10542 10540 10541 10541 10540 10540 10538 10535 10534 10533 10531 10529 10527 10525 10523 10521 10518 10515 10513 10510 10507 10505 10503 10500 10498 10495 10492 10489 10485 10481 10477 10474 10470 10466 10462 10458 10453 10448 10443 10438 10433 10427 10422 10417 10411 10406 10400 10393 10387 10381 10375 10368 10363 10357 10351 10346 10340 10334 10329 10324 10319 10314 10309 10303 10298 10293 10288 10284 10280 10275 10271 10269 10265 10261 10257
10548 10548 10549 10550 10549 10549 10549 10548 10545 10541 10536 10534 10534 10534 10534 10533 10532 10529 10527 10526 10525 10523 10521 10520 10518 10515 10512 10509 10507 10504 10502 10499 10497 10494 10492 10489 10487 10483 10480 10476 10472 10468 10465 10461 10457 10453 10449 10444 10440 10435 10429 10424 10419 10414 10408 10402 10396 10390 10384 10378 10371 10365 10359 10353 10348 10343 10337 10332 10326 10322 10317 10313 10308 10303 10298 10293 10287 10281 10276 10271 10266 10263 10260 10258 10255
10542 10542 10543 10542 10542 10542 10543 10542 10540 10536 10532 10530 10529 10528 10527 10526 10525 10523 10521 10520 10519 10517 10516 10514 10512 10509 10506 10504 10501 10498 10496 10493 10490 10488 10486 10484 10481 10478 10474 10471 10467 10463 10460 10456 10452 10448 10444 10440 10436 10431 10426 10421 10416 10410 10405 10399 10393 10387 10381 10375 10369 10363 10357 10351 10346 10340 10335 10330 10324 10319 10315 10310 10306 10302 10296 10291 10285 10279 10273 10268 10263 10258 10254 10252 10251
10536 10536 10536 10536 10536 10536 10536 10536 10534 10531 10528 10525 10524 10522 10520 10519 10519 10517 10515 10514 10512 10511 10509 10508 10505 10503 10501 10498 10495 10492 10490 10487 10484 10481 10480 10478 10476 10473 10469 10465 10462 10458 10455 10451 10447 10443 10439 10435 10431 10427 10422 10418 10413 10407 10402 10396 10390 10384 10378 10372 10367 10361 10356 10350 10344 10338 10333 10328 10323 10318 10313 10308 10303 10299 10294 10289 10284 10279 10274 10268 10264 10259 10254 10250 10248
10529 10529 10529 10529 10529 10529 10528 10528 10527 10525 10522 10520 10518 10516 10514 10513 10512 10511 10509 10508 10506 10504 10503 10501 10499 10497 10495 10492 10489 10486 10484 10481 10477 10475 10474 10473 10470 10467 10464 10460 10457 10453 10450 10446 10442 10438 10434 10430 10426 10422 10418 10414 10409 10403 10398 10393 10387 10381 10375 10370 10365 10359 10354 10348 10343 10338 10333 10327 10322 10317 10311 10306 10300 10296 10292 10288 10284 10279 10274 10269 10264 10260 10255 10251 10247
10523 10523 10522 10522 10522 10522 10522 10521 10519 10517 10515 10513 10511 10509 10507 10506 10505 10504 10503 10502 10500 10498 10496 10495 10493 10491 10489 10486 10482 10480 10477 10474 10470 10468 10467 10467 10464 10462 10459 10455 10452 10448 10445 10441 10437 10432 10428 10425 10422 10418 10414 10410 10405 10400 10394 10389 10385 10379 10373 10368 10362 10356 10350 10345 10340 10335 10330 10324 10319 10314 10309 10303 10298 10294 10290 10286 10283 10279 10274 10269 10264 10259 10255 10251 10247
10516 10516 10516 10515 10515 10515 10515 10514 10512 10510 10508 10505 10503 10501 10500 10499 10499 10498 10497 10496 10493 10491 10489 10488 10486 10484 10482 10479 10475 10473 10470 10467 10464 10461 10461 10460 10458 10456 10453 10450 10446 10443 10439 10435 10431 10427 10423 10420 10417 10413 10409 10406 10401 10397 10391 10386 10381 10376 10371 10365 10359 10353 10347 10341 10336 10331 10326 10322 10317 10313 10308 10303 10298 10293 10289 10284 10281 10277 10274 10270 10265 10260 10255 10250 10247
10510 10509 10509 10508 10508 10508 10507 10506 10505 10503 10499 10496 10494 10493 10493 10492 10491 10491 10491 10489 10486 10483 10481 10480 10479 10477 10475 10472 10469 10466 10463 10460 10457 10455 10453 10452 10451 10449 10447 10444 10440 10437 10433 10429 10425 10421 10418 10415 10412 10408 10405 10401 10397 10393 10388 10383 10377 10371 10366 10361 10355 10350 10344 10339 10334 10329 10324 10320 10316 10312 10308 10304 10299 10294 10289 10284 10280 10276 10272 10269 10265 10261 10256 10251 10247
10502 10502 10502 10501 10502 10502 10500 10498 10497 10495 10491 10486 10484 10484 10484 10484 10484 10484 10484 10482 10480 10476 10472 10470 10470 10468 10466 10465 10463 10460 10457 10453 10451 10449 10447 10445 10444 10443 10441 10438 10435 10431 10427 10423 10420 10416 10413 10410 10407 10404 10400 10396 10392 10389 10384 10379 10374 10367 10362 10356 10352 10347 10342 10337 10332 10327 10322 10318 10314 10310 10307 10303 10299 10295 10290 10285 10280 10276 10271 10267 10264 10260 10256 10253 10249
10495 10494 10494 10494 10494 10494 10492 10490 10488 10487 10484 10479 10475 10474 10475 10475 10475 10476 10476 10475 10474 10470 10466 10463 10461 10460 10458 10458 10456 10454 10451 10447 10445 10443 10441 10439 10438 10437 10435 10432 10429 10425 10421 10418 10415 10412 10408 10405 10403 10399 10395 10391 10388 10385 10380 10376 10371 10366 10359 10353 10348 10344 10339 10335 10330 10326 10321 10317 10312 10308 10305 10301 10298 10294 10291 10286 10281 10276 10271 10267 10264 10260 10256 10252 10249
10487 10486 10485 10485 10486 10486 10485 10482 10480 10478 10476 10472 10468 10466 10466 10467 10467 10467 10467 10467 10465 10462 10458 10455 10453 10451 10450 10450 10449 10447 10444 10441 10438 10436 10434 10433 10432 10430 10429 10426 10423 10419 10416 10413 10410 10407 10404 10401 10398 10394 10390 10386 10383 10380 10377 10372 10368 10363 10358 10352 10346 10341 10337 10333 10328 10325 10321 10316 10312 10307 10303 10300 10296 10293 10289 10286 10282 10277 10273 10268 10264 10260 10256 10252 10249
10479 10478 10477 10476 10476 10477 10477 10475 10472 10470 10468 10464 10460 10459 10459 10460 10460 10459 10459 10457 10455 10453 10451 10448 10446 10443 10442 10442 10441 10439 10437 10434 10432 10429 10428 10426 10425 10423 10422 10419 10416 10413 10410 10407 10405 10402 10399 10396 10393 10389 10385 10381 10378 10375 10372 10369 10365 10360 10355 10350 10345 10340 10335 10331 10327 10323 10319 10315 10310 10306 10302 10298 10295 10291 10288 10284 10281 10277 10273 10269 10265 10260 10257 10253 10250
10470 10469 10468 10467 10467 10467 10467 10466 10463 10462 10459 10455 10450 10449 10450 10451 10451 10450 10450 10448 10446 10445 10444 10442 10439 10437 10436 10435 10434 10432 10430 10428 10425 10422 10421 10419 10418 10417 10415 10413 10411 10408 10405 10402 10399 10397 10394 10391 10387 10384 10381 10377 10373 10370 10367 10364 10361 10357 10352 10347 10342 10337 10333 10329 10324 10320 10317 10313 10309 10304 10300 10296 10293 10290 10287 10284 10281 10277 10273 10270 10266 10262 10258 10254 10251
10462 10461 10459 10458 10457 10457 10457 10457 10454 10452 10450 10445 10441 10439 10440 10440 10439 10439 10439 10438 10436 10436 10435 10432 10430 10428 10429 10428 10427 10425 10424 10422 10419 10416 10414 10413 10412 10411 10409 10407 10405 10403 10400 10397 10394 10392 10389 10386 10382 10379 10376 10373 10369 10365 10362 10360 10357 10353 10348 10344 10339 10334 10330 10326 10322 10317 10314 10310 10306 10302 10299 10295 10291 10288 10285 10283 10280 10277 10273 10270 10266 10262 10259 10255 10252
10453 10451 10450 10449 10448 10447 10448 10448 10446 10443 10440 10437 10434 10432 10431 10430 10428 10429 10429 10428 10427 10427 10426 10423 10420 10418 10418 10419 10419 10419 10417 10414 10412 10409 10408 10407 10406 10404 10402 10401 10399 10397 10395 10392 10389 10386 10384 10381 10378 10375 10372 10368 10364 10360 10357 10355 10352 10348 10344 10340 10336 10332 10327 10323 10320 10316 10311 10307 10304 10300 10296 10293 10290 10286 10283 10281 10278 10275 10272 10268 10265 10262 10258 10255 10252
10443 10441 10439 10439 10438 10438 10438 10438 10437 10433 10431 10430 10428 10426 10423 10421 10419 10420 10420 10420 10419 10419 10418 10415 10412 10411 10410 10411 10412 10411 10409 10407 10405 10403 10402 10401 10399 10397 10395 10394 10392 10390 10389 10387 10384 10381 10378 10376 10373 10370 10367 10364 10360 10356 10352 10349 10347 10343 10340 10336 10332 10328 10324 10320 10317 10314 10310 10305 10301 10297 10294 10291 10288 10285 10282 10279 10276 10274 10271 10267 10264 10261 10258 10254 10251
10433 10432 10430 10430 10429 10428 10428 10428 10426 10423 10422 10422 10421 10418 10415 10412 10411 10411 10412 10412 10412 10411 10409 10407 10406 10404 10404 10405 10404 10403 10401 10399 10397 10396 10396 10395 10393 10391 10389 10387 10386 10384 10383 10381 10378 10375 10372 10370 10367 10364 10361 10358 10355 10351 10347 10344 10342 10339 10335 10332 10328 10324 10320 10316 10313 10310 10307 10304 10300 10295 10291 10288 10286 10283 10281 10277 10274 10271 10269 10266 10263 10260 10257 10254 10251
10424 10423 10422 10422 10421 10420 10419 10419 10417 10415 10413 10413 10412 10409 10406 10403 10403 10404 10403 10403 10402 10401 10400 10399 10398 10396 10397 10398 10397 10395 10393 10391 10389 10389 10389 10388 10386 10384 10382 10381 10379 10378 10376 10374 10372 10370 10367 10364 10361 10358 10355 10353 10349 10346 10342 10339 10337 10334 10331 10327 10324 10320 10316 10312 10309 10306 10304 10301 10297 10293 10289 10286 10283 10280 10278 10275 10273 10269 10267 10264 10262 10259 10257 10254 10251
10415 10414 10413 10413 10412 10411 10410 10410 10409 10408 10406 10404 10403 10401 10398 10396 10395 10396 10395 10394 10393 10392 10391 10390 10389 10388 10389 10390 10389 10387 10386 10383 10382 10382 10382 10380 10379 10377 10376 10375 10374 10372 10370 10369 10367 10364 10361 10358 10355 10352 10350 10347 10344 10340 10337 10334 10332 10329 10326 10323 10320 10315 10311 10307 10304 10301 10299 10297 10294 10291 10287 10283 10280 10277 10275 10273 10270 10267 10264 10261 10259 10257 10255 10253 10250
10406 10405 10404 10404 10403 10402 10401 10401 10400 10400 10399 10397 10395 10393 10391 10389 10388 10387 10386 10386 10385 10384 10383 10382 10380 10381 10382 10382 10381 10380 10378 10376 10375 10375 10374 10374 10372 10371 10370 10369 10368 10366 10364 10363 10361 10359 10356 10353 10350 10347 10344 10341 10338 10335 10332 10329 10326 10324 10321 10318 10315 10311 10307 10303 10299 10296 10294 10292 10290 10287 10284 10281 10278 10275 10272 10270 10267 10264 10262 10259 10256 10254 10252 10250 10248
10397 10396 10395 10394 10394 10393 10392 10392 10391 10391 10390 10388 10386 10385 10383 10382 10381 10379 10379 10378 10377 10376 10375 10374 10373 10373 10373 10373 10373 10372 10370 10369 10368 10368 10367 10367 10366 10365 10364 10363 10361 10360 10358 10356 10355 10353 10350 10347 10343 10340 10338 10335 10332 10329 10326 10323 10320 10318 10315 10313 10310 10306 10302 10298 10295 10292 10289 10286 10284 10283 10280 10278 10275 10272 10269 10267 10264 10262 10259 10256 10254 10252 10250 10248 10246
10389 10387 10386 10385 10385 10384 10383 10383 10383 10382 10381 10380 10379 10377 10375 10374 10373 10372 10371 10371 10370 10369 10368 10367 10366 10365 10365 10365 10365 10364 10363 10362 10362 10361 10360 10360 10359 10358 10357 10356 10355 10353 10351 10349 10347 10345 10343 10339 10336 10334 10331 10328 10325 10322 10319 10317 10314 10312 10310 10308 10305 10301 10297 10293 10290 10287 10284 10281 10279 10277 10275 10274 10271 10269 10266 10264 10261 10259 10256 10253 10251 10249 10247 10245 10243
10381 10380 10378 10377 10375 10374 10374 10374 10374 10373 10372 10371 10370 10369 10368 10366 10366 10365 10364 10363 10363 10362 10361 10360 10359 10358 10357 10357 10358 10357 10356 10356 10355 10354 10353 10353 10353 10351 10350 10349 10348 10346 10344 10342 10340 10338 10335 10332 10329 10327 10324 10321 10318 10316 10313 10310 10308 10306 10304 10302 10299 10296 10292 10288 10285 10282 10279 10276 10274 10272 10270 10269 10267 10264 10262 10260 10258 10256 10253 10251 10248 10246 10244 10242 10240
10373 10372 10370 10369 10367 10366 10365 10364 10363 10363 10362 10362 10361 10361 10359 10358 10358 10357 10356 10355 10355 10354 10354 10353 10352 10351 10350 10350 10350 10350 10349 10348 10348 10347 10346 10346 10346 10344 10343 10342 10340 10338 10336 10334 10332 10330 10328 10325 10322 10319 10316 10314 10311 10309 10306 10304 10302 10300 10298 10296 10293 10290 10286 10283 10280 10277 10274 10271 10269 10267 10265 10264 10262 10260 10258 10256 10254 10252 10250 10248 10245 10243 10241 10239 10237
10364 10363 10362 10361 10360 10358 10357 10355 10354 10353 10352 10352 10353 10353 10352 10351 10350 10349 10348 10347 10347 10346 10346 10345 10344 10344 10343 10343 10343 10342 10341 10341 10340 10339 10339 10338 10338 10337 10336 10334 10332 10330 10328 10326 10324 10322 10320 10318 10315 10312 10309 10306 10304 10302 10300 10298 10296 10294 10291 10289 10286 10284 10280 10277 10275 10272 10269 10267 10264 10262 10260 10258 10257 10255 10253 10251 10250 10248 10246 10244 10242 10240 10238 10236 10234
10355 10355 10354 10353 10351 10350 10349 10348 10347 10344 10343 10343 10343 10344 10344 10343 10342 10341 10340 10340 10339 10339 10338 10338 10337 10336 10336 10336 10336 10335 10334 10334 10333 10332 10331 10331 10330 10329 10328 10327 10325 10322 10320 10318 10317 10315 10313 10310 10307 10305 10302 10299 10297 10295 10293 10291 10289 10287 10284 10281 10279 10276 10274 10271 10269 10267 10264 10262 10259 10257 10254 10253 10251 10250 10248 10247 10245 10243 10242 10240 10238 10236 10235 10233 10231
10345 10345 10345 10344 10343 10341 10341 10340 10339 10336 10335 10335 10335 10335 10335 10334 10334 10333 10333 10332 10332 10332 10331 10331 10330 10330 10329 10329 10329 10328 10327 10327 10326 10325 10324 10323 10322 10321 10320 10319 10317 10315 10313 10311 10309 10307 10305 10303 10300 10297 10295 10292 10290 10288 10287 10285 10282 10279 10276 10273 10271 10269 10268 10265 10263 10261 10259 10257 10254 10252 10249 10247 10246 10245 10243 10242 10240 10238 10236 10235 10234 10232 10231 10229 10227
10336 10335 10335 10334 10334 10333 10332 10332 10331 10329 10328 10328 10328 10327 10326 10326 10325 10325 10325 10324 10324 10324 10324 10323 10323 10323 10322 10322 10321 10321 10320 10319 10318 10317 10316 10315 10314 10313 10312 10311 10309 10308 10306 10304 10301 10299 10297 10294 10292 10289 10287 10286 10284 10282 10280 10277 10275 10271 10268 10266 10263 10262 10261 10260 10258 10256 10254 10252 10250 10247 10244 10241 10240 10239 10238 10236 10235 10232 10231 10229 10228 10227 10226 10224 10223
10328 10326 10325 10325 10325 10325 10324 10324 10323 10323 10322 10321 10320 10319 10318 10318 10318 10318 10317 10317 10317 10317 10316 10316 10315 10315 10314 10314 10313 10313 10312 10311 10310 10309 10308 10307 10307 10306 10305 10303 10301 10300 10298 10296 10293 10291 10289 10286 10284 10282 10280 10279 10277 10275 10272 10270 10267 10264 10261 10259 10257 10255 10255 10253 10252 10250 10249 10247 10245 10242 10238 10236 10234 10232 10231 10230 10229 10227 10225 10223 10222 10221 10220 10219 10218